CW2683 Weather Reports


Display with metric or nautical units.
time (UTC)temp
F
wind
direction
speed
MPH
gust
MPH
rain 1hr
in
rain 24hr
in
rain mn
in
humidity
%
barometer
mb
20190217175120 45 22 6.0 16.0 0.00 0.02 0.02 63 1017.6
20190217174110 44 32 5.0 14.0 0.00 0.02 0.02 67 1017.5
20190217173033 43 59 5.0 12.0 0.00 0.02 0.02 68 1017.6
20190217172037 42 5 5.0 13.0 0.00 0.02 0.02 71 1017.3
20190217171040 42 54 5.0 13.0 0.00 0.02 0.02 70 1017.3
20190217170004 42 73 4.0 12.0 0.00 0.02 0.02 72 1017.2
20190217164931 41 23 4.0 10.0 0.00 0.02 0.02 73 1017.0
20190217163954 41 24 4.0 10.0 0.00 0.02 0.02 74 1017.1
20190217163000 40 57 5.0 10.0 0.00 0.02 0.02 75 1017.0
20190217161930 40 17 3.0 10.0 0.00 0.02 0.02 75 1016.7
20190217160938 40 355 5.0 12.0 0.00 0.02 0.02 75 1016.7
20190217155926 40 12 5.0 12.0 0.00 0.02 0.02 76 1016.4
20190217154929 40 11 6.0 15.0 0.00 0.02 0.02 76 1016.4
20190217153944 39 21 7.0 16.0 0.00 0.02 0.02 77 1016.1
20190217152930 40 5 6.0 19.0 0.00 0.02 0.02 79 1015.9
20190217151920 39 355 7.0 19.0 0.00 0.02 0.02 79 1016.0
20190217150909 40 5 7.0 15.0 0.00 0.02 0.02 81 1015.6
20190217145843 39 9 4.0 13.0 0.00 0.02 0.02 81 1015.3
20190217144808 39 355 7.0 14.0 0.00 0.02 0.02 81 1015.1
20190217143826 40 15 5.0 17.0 0.00 0.02 0.02 82 1015.0
20190217142842 40 5 6.0 17.0 0.00 0.02 0.02 82 1014.9
20190217141900 40 5 6.0 16.0 0.00 0.02 0.02 82 1014.8
20190217140915 40 49 6.0 14.0 0.00 0.02 0.02 83 1014.6
20190217135849 41 29 5.0 17.0 0.00 0.02 0.02 84 1014.4
20190217134813 41 350 7.0 17.0 0.00 0.02 0.02 84 1014.2
20190217133739 41 59 5.0 14.0 0.00 0.02 0.02 86 1014.2
20190217132712 41 11 7.0 14.0 0.00 0.02 0.02 86 1013.9
20190217131725 41 28 5.0 13.0 0.00 0.02 0.02 87 1013.6
20190217130701 42 41 5.0 13.0 0.00 0.02 0.02 87 1013.3
20190217125720 42 5 5.0 13.0 0.00 0.02 0.02 88 1013.2
20190217124644 42 23 4.0 11.0 0.00 0.02 0.02 88 1012.9
20190217123703 42 26 4.0 11.0 0.00 0.02 0.02 88 1012.5
20190217122723 42 53 4.0 12.0 0.00 0.02 0.02 88 1012.4
20190217121653 42 49 5.0 12.0 0.00 0.02 0.02 88 1012.1
20190217120700 42 38 3.0 9.0 0.00 0.02 0.02 88 1012.1
20190217115700 43 348 4.0 12.0 0.00 0.02 0.02 88 1012.1
20190217114630 43 339 4.0 12.0 0.00 0.02 0.02 88 1012.1
20190217113647 43 16 4.0 10.0 0.00 0.02 0.02 88 1012.0
20190217112642 43 0 3.0 10.0 0.00 0.02 0.02 88 1011.8
20190217111700 43 44 2.0 12.0 0.00 0.02 0.02 88 1011.7
20190217110709 43 15 5.0 12.0 0.00 0.02 0.02 88 1011.3
20190217105703 43 344 3.0 10.0 0.00 0.01 0.01 88 1010.8
20190217104707 43 20 4.0 10.0 0.00 0.01 0.01 88 1010.5
20190217103653 43 69 3.0 13.0 0.00 0.01 0.01 88 1009.9
20190217102704 43 35 4.0 13.0 0.00 0.01 0.01 88 1009.9
20190217101656 43 71 3.0 9.0 0.00 0.01 0.01 88 1009.4
20190217100654 43 55 4.0 9.0 0.00 0.01 0.01 88 1009.3
20190217095619 44 39 3.0 9.0 0.00 0.01 0.01 88 1009.3
20190217094610 44 349 4.0 9.0 0.00 0.01 0.01 88 1008.8
20190217093605 44 46 3.0 8.0 0.00 0.01 0.01 88 1008.7
20190217092619 44 24 3.0 7.0 0.00 0.01 0.01 88 1008.9
20190217091552 44 44 1.0 7.0 0.00 0.01 0.01 88 1008.6
20190217090540 44 49 2.0 6.0 0.00 0.01 0.01 88 1008.2
20190217085559 44 53 1.0 6.0 0.00 0.01 0.01 88 1008.1
20190217084538 44 26 0.0 0.0 0.00 0.01 0.01 88 1008.0
20190217083528 44 58 0.0 0.0 0.00 0.01 0.01 88 1007.5
20190217082524 44 50 0.0 0.0 0.00 0.01 0.01 88 1007.6
20190217081515 44 72 1.0 6.0 0.00 0.01 0.01 88 1007.9
20190217080536 44 49 0.0 4.0 0.00 0.01 0.01 88 1008.0
20190217075549 44 55 0.0 6.0 0.00 0.01 0.01 88 1008.3
20190217074530 44 38 1.0 6.0 0.00 0.01 0.01 88 1008.1
20190217073540 44 5 1.0 3.0 0.00 0.01 0.01 88 1008.2
20190217072544 44 46 1.0 4.0 0.00 0.01 0.01 88 1007.8
20190217071545 44 355 1.0 4.0 0.00 0.01 0.01 88 1007.9
20190217070555 44 55 1.0 0.0 0.00 0.01 0.01 88 1007.8
20190217065541 44 61 1.0 3.0 0.00 0.01 0.01 88 1007.6
20190217064527 44 154 0.0 1.0 0.00 0.01 0.01 88 1007.2
20190217063516 44 154 0.0 0.0 0.00 0.01 0.01 88 1006.9
20190217062459 44 154 0.0 0.0 0.00 0.01 0.01 88 1006.7
20190217061451 43 124 0.0 0.0 0.00 0.00 0.01 88 1006.9
20190217060427 43 124 0.0 0.0 0.00 0.00 0.01 88 1006.9
20190217055356 43 124 0.0 0.0 0.00 0.00 0.00 88 1006.7
20190217054359 43 124 0.0 0.0 0.00 0.00 0.00 88 1007.1
20190217053345 43 123 0.0 0.0 0.00 0.00 0.00 88 1007.2
20190217052403 43 123 0.0 4.0 0.00 0.00 0.00 88 1006.8
20190217051345 43 158 0.0 4.0 0.00 0.00 0.00 88 1006.5
20190217050358 43 205 0.0 3.0 0.00 0.00 0.00 88 1006.7
20190217045324 43 210 1.0 5.0 0.00 0.00 0.00 88 1006.9
20190217044334 43 202 0.0 5.0 0.00 0.00 0.00 88 1007.0
20190217043353 43 197 0.0 3.0 0.00 0.00 0.00 88 1006.8
20190217042327 42 217 0.0 3.0 0.00 0.00 0.00 87 1007.1
20190217041307 42 205 0.0 3.0 0.00 0.00 0.00 87 1007.3
20190217040316 42 148 0.0 3.0 0.00 0.00 0.00 87 1007.2
20190217035301 42 116 0.0 5.0 0.00 0.00 0.00 87 1006.1
20190217034241 42 177 2.0 8.0 0.00 0.00 0.00 87 1006.2
20190217033216 42 197 3.0 13.0 0.00 0.00 0.00 87 1006.2
20190217032229 42 200 2.0 13.0 0.00 0.00 0.00 87 1005.7
20190217031226 42 150 3.0 9.0 0.00 0.00 0.00 87 1005.5
20190217030217 42 120 3.0 9.0 0.00 0.00 0.00 87 1005.6
20190217025235 41 168 1.0 6.0 0.00 0.00 0.00 86 1005.9
20190217024203 41 119 1.0 7.0 0.00 0.00 0.00 86 1005.9
20190217023150 41 139 2.0 7.0 0.00 0.00 0.00 86 1005.9
20190217022143 41 129 2.0 7.0 0.00 0.00 0.00 86 1006.1
20190217021125 41 119 1.0 5.0 0.00 0.00 0.00 85 1006.7
20190217020121 41 180 0.0 6.0 0.00 0.00 0.00 85 1006.9
20190217015051 41 144 1.0 6.0 0.00 0.00 0.00 85 1006.8
20190217014015 41 182 0.0 0.0 0.00 0.00 0.00 84 1006.9
20190217012956 41 165 1.0 7.0 0.00 0.00 0.00 84 1006.6
20190217012010 41 130 1.0 7.0 0.00 0.00 0.00 84 1006.6
20190217011005 41 102 1.0 5.0 0.00 0.00 0.00 83 1006.7
20190217010023 41 176 1.0 7.0 0.00 0.00 0.00 83 1006.6
20190217005006 41 202 1.0 7.0 0.00 0.00 0.00 82 1006.7
20190217004012 41 172 2.0 7.0 0.00 0.00 0.00 81 1006.7
20190217003027 41 146 1.0 5.0 0.00 0.00 0.00 81 1006.7
20190217002036 42 140 1.0 5.0 0.00 0.00 0.00 80 1006.5
20190217001010 42 161 0.0 3.0 0.00 0.00 0.00 80 1006.7
20190217000013 42 139 0.0 4.0 0.00 0.00 0.00 79 1006.5
20190216234950 42 164 1.0 5.0 0.00 0.00 0.00 79 1006.6
20190216233946 42 213 1.0 6.0 0.00 0.00 0.00 78 1006.6
20190216232918 42 175 1.0 6.0 0.00 0.00 0.00 77 1006.4
20190216231912 43 163 3.0 10.0 0.00 0.00 0.00 77 1006.2
20190216230852 43 188 2.0 10.0 0.00 0.00 0.00 77 1006.4
20190216225852 43 127 1.0 7.0 0.00 0.00 0.00 76 1006.6
20190216224830 43 128 1.0 5.0 0.00 0.00 0.00 76 1006.9
20190216223823 43 141 1.0 6.0 0.00 0.00 0.00 76 1007.0
20190216222840 43 126 1.0 6.0 0.00 0.00 0.00 76 1007.0
20190216221830 43 113 2.0 6.0 0.00 0.00 0.00 76 1006.9
20190216220839 43 167 1.0 6.0 0.00 0.00 0.00 76 1007.0
20190216215823 43 93 0.0 3.0 0.00 0.00 0.00 76 1007.3
20190216214826 42 77 0.0 1.0 0.00 0.00 0.00 76 1007.7
20190216213758 42 101 0.0 1.0 0.00 0.00 0.00 77 1008.1
20190216212752 42 80 0.0 0.0 0.00 0.00 0.00 76 1008.1
20190216211745 42 283 0.0 1.0 0.00 0.00 0.00 77 1008.4
20190216210719 42 50 1.0 3.0 0.00 0.00 0.00 77 1008.4
20190216205717 42 296 1.0 3.0 0.00 0.00 0.00 78 1008.7
20190216204719 41 223 0.0 5.0 0.00 0.00 0.00 78 1008.7
20190216203648 41 192 1.0 5.0 0.00 0.00 0.00 78 1008.6
20190216202635 40 207 0.0 3.0 0.00 0.00 0.00 79 1008.9
20190216201656 40 136 0.0 2.0 0.00 0.00 0.00 80 1009.1
20190216200624 40 149 2.0 5.0 0.00 0.00 0.00 80 1009.2
20190216195557 39 138 1.0 3.0 0.00 0.00 0.00 81 1009.3
20190216194533 39 207 1.0 5.0 0.00 0.00 0.00 81 1009.7
20190216193535 39 211 0.0 5.0 0.00 0.00 0.00 81 1009.8
20190216192501 38 217 0.0 2.0 0.00 0.00 0.00 81 1010.3
20190216191508 38 213 0.0 0.0 0.00 0.00 0.00 82 1010.7
20190216190526 38 271 1.0 3.0 0.00 0.00 0.00 83 1011.0
20190216185525 37 147 0.0 0.0 0.00 0.00 0.00 83 1011.0
20190216184516 37 136 0.0 3.0 0.00 0.00 0.00 83 1011.8
20190216183451 37 50 0.0 0.0 0.00 0.00 0.00 83 1012.1
20190216182512 37 54 1.0 4.0 0.00 0.00 0.00 83 1012.1
20190216181444 36 46 0.0 2.0 0.00 0.00 0.00 84 1012.0
20190216180455 36 74 0.0 1.0 0.00 0.00 0.00 84 1012.8